Time,TemperatureF,DewpointF,PressureIn,WindDirection,WindDirectionDegrees,WindSpeedMPH,WindSpeedGustMPH,Humidity,HourlyPrecipIn,Conditions,Clouds,dailyrainin,SoftwareType,DateUTC
2013-03-18 00:01:00,25.3,7.9,29.85,ESE,115,8.1,8.1,47,0.00,,---,0.00,VWS V14.00,2013-03-18 05:01:00,
2013-03-18 00:06:00,25.5,8.1,29.85,SE,126,3.1,5.4,47,0.00,,---,0.00,VWS V14.00,2013-03-18 05:06:00,
2013-03-18 00:11:00,25.5,8.6,29.85,SE,137,8.3,8.3,48,0.00,,---,0.00,VWS V14.00,2013-03-18 05:11:00,
2013-03-18 00:16:00,25.7,9.2,29.85,ESE,116,4.0,8.1,49,0.00,,---,0.00,VWS V14.00,2013-03-18 05:16:00,
2013-03-18 00:21:00,25.9,10.3,29.85,ESE,115,3.6,7.6,51,0.00,,---,0.00,VWS V14.00,2013-03-18 05:21:00,
2013-03-18 00:26:00,26.1,10.9,29.85,ESE,121,6.3,10.5,52,0.00,,---,0.00,VWS V14.00,2013-03-18 05:26:00,
2013-03-18 00:31:00,26.1,10.9,29.82,SSE,155,10.5,10.5,52,0.00,,---,0.00,VWS V14.00,2013-03-18 05:31:00,
2013-03-18 00:36:00,26.1,11.3,29.82,SSE,152,5.4,10.5,53,0.00,,---,0.00,VWS V14.00,2013-03-18 05:36:00,
2013-03-18 00:41:00,26.2,11.9,29.82,ESE,113,6.3,8.3,54,0.00,,---,0.00,VWS V14.00,2013-03-18 05:41:00,
2013-03-18 00:46:00,26.2,12.3,29.82,ESE,108,5.8,10.5,55,0.00,,---,0.00,VWS V14.00,2013-03-18 05:46:00,
2013-03-18 00:51:00,26.4,12.9,29.82,South,177,5.4,8.7,56,0.00,,---,0.00,VWS V14.00,2013-03-18 05:51:00,
2013-03-18 00:57:00,26.4,12.9,29.79,SSE,156,4.9,9.6,56,0.00,,---,0.00,VWS V14.00,2013-03-18 05:57:00,
2013-03-18 01:02:00,26.6,13.4,29.79,SSE,155,8.7,8.7,57,0.00,,---,0.00,VWS V14.00,2013-03-18 06:02:00,
2013-03-18 01:07:00,26.6,13.4,29.79,SSE,163,6.3,8.1,57,0.00,,---,0.00,VWS V14.00,2013-03-18 06:07:00,
2013-03-18 01:12:00,26.6,13.4,29.79,South,179,6.3,12.3,57,0.00,,---,0.00,VWS V14.00,2013-03-18 06:12:00,
2013-03-18 01:17:00,26.6,13.8,29.79,ESE,111,7.6,8.7,58,0.00,,---,0.00,VWS V14.00,2013-03-18 06:17:00,
2013-03-18 01:22:00,26.6,13.8,29.79,SE,137,6.3,8.7,58,0.00,,---,0.00,VWS V14.00,2013-03-18 06:22:00,
2013-03-18 01:27:00,26.4,13.7,29.79,East,98,6.3,9.6,58,0.00,,---,0.00,VWS V14.00,2013-03-18 06:27:00,
2013-03-18 01:32:00,26.6,14.2,29.79,ESE,121,8.7,8.7,59,0.00,,---,0.00,VWS V14.00,2013-03-18 06:32:00,
2013-03-18 01:37:00,26.4,14.1,29.79,South,173,5.8,7.6,59,0.00,,---,0.00,VWS V14.00,2013-03-18 06:37:00,
2013-03-18 01:42:00,26.4,14.1,29.76,SE,141,9.2,9.6,59,0.00,,---,0.00,VWS V14.00,2013-03-18 06:42:00,
2013-03-18 01:47:00,26.4,14.4,29.76,SSE,159,10.5,10.5,60,0.00,,---,0.00,VWS V14.00,2013-03-18 06:47:00,
2013-03-18 01:52:00,26.4,14.4,29.76,South,181,5.4,9.6,60,0.00,,---,0.00,VWS V14.00,2013-03-18 06:52:00,
2013-03-18 01:57:00,26.4,14.4,29.76,ESE,111,11.0,11.0,60,0.00,,---,0.00,VWS V14.00,2013-03-18 06:57:00,
2013-03-18 02:02:00,26.6,14.6,29.76,ESE,115,12.3,12.3,60,0.00,,---,0.00,VWS V14.00,2013-03-18 07:02:00,
2013-03-18 02:07:00,26.6,14.6,29.76,ESE,122,14.5,14.5,60,0.00,,---,0.00,VWS V14.00,2013-03-18 07:07:00,
2013-03-18 02:12:00,26.6,15.0,29.73,SE,127,6.3,9.6,61,0.00,,---,0.00,VWS V14.00,2013-03-18 07:12:00,
2013-03-18 02:17:00,26.8,14.8,29.73,South,179,8.1,11.0,60,0.00,,---,0.00,VWS V14.00,2013-03-18 07:17:00,
2013-03-18 02:22:00,26.8,15.1,29.73,South,170,6.3,10.1,61,0.00,,---,0.00,VWS V14.00,2013-03-18 07:22:00,
2013-03-18 02:27:00,26.8,15.1,29.73,SE,135,8.3,10.5,61,0.00,,---,0.00,VWS V14.00,2013-03-18 07:27:00,
2013-03-18 02:32:00,26.8,15.1,29.73,SE,126,5.8,10.1,61,0.00,,---,0.00,VWS V14.00,2013-03-18 07:32:00,
2013-03-18 02:37:00,27.0,15.3,29.73,ESE,115,5.8,10.1,61,0.00,,---,0.00,VWS V14.00,2013-03-18 07:37:00,
2013-03-18 02:42:00,27.0,15.3,29.73,SE,131,5.4,8.3,61,0.00,,---,0.00,VWS V14.00,2013-03-18 07:42:00,
2013-03-18 02:47:00,27.0,15.3,29.73,South,177,8.7,8.7,61,0.00,,---,0.00,VWS V14.00,2013-03-18 07:47:00,
2013-03-18 02:52:00,27.0,15.3,29.73,SSE,160,5.8,12.8,61,0.00,,---,0.00,VWS V14.00,2013-03-18 07:52:00,
2013-03-18 02:58:00,27.0,15.3,29.70,SE,146,8.1,11.4,61,0.00,,---,0.00,VWS V14.00,2013-03-18 07:58:00,
2013-03-18 03:03:00,27.0,15.3,29.70,SSE,148,5.4,11.0,61,0.00,,---,0.00,VWS V14.00,2013-03-18 08:03:00,
2013-03-18 03:08:00,27.0,15.7,29.70,East,101,5.8,15.0,62,0.00,,---,0.00,VWS V14.00,2013-03-18 08:08:00,
2013-03-18 03:13:00,27.0,15.7,29.70,ESE,121,5.4,11.9,62,0.00,,---,0.00,VWS V14.00,2013-03-18 08:13:00,
2013-03-18 03:18:00,27.0,15.7,29.70,SE,131,8.1,11.0,62,0.00,,---,0.00,VWS V14.00,2013-03-18 08:18:00,
2013-03-18 03:23:00,27.0,15.7,29.70,ESE,120,7.6,13.2,62,0.00,,---,0.00,VWS V14.00,2013-03-18 08:23:00,
2013-03-18 03:28:00,27.1,15.9,29.73,SSE,148,5.8,10.5,62,0.00,,---,0.00,VWS V14.00,2013-03-18 08:28:00,
2013-03-18 03:33:00,27.1,15.9,29.73,South,170,5.8,8.1,62,0.00,,---,0.00,VWS V14.00,2013-03-18 08:33:00,
2013-03-18 03:38:00,27.1,15.9,29.73,SSE,149,5.8,6.3,62,0.00,,---,0.00,VWS V14.00,2013-03-18 08:38:00,
2013-03-18 03:43:00,27.1,15.9,29.73,SE,145,6.3,8.3,62,0.00,,---,0.00,VWS V14.00,2013-03-18 08:43:00,
2013-03-18 03:48:00,27.1,15.9,29.73,ESE,116,6.3,8.3,62,0.00,,---,0.00,VWS V14.00,2013-03-18 08:48:00,
2013-03-18 03:53:00,27.1,16.2,29.73,SSE,155,4.0,8.3,63,0.00,,---,0.00,VWS V14.00,2013-03-18 08:53:00,
2013-03-18 03:58:00,27.1,16.2,29.70,ESE,121,8.3,8.3,63,0.00,,---,0.00,VWS V14.00,2013-03-18 08:58:00,
2013-03-18 04:03:00,27.1,16.6,29.70,SE,125,7.6,7.6,64,0.00,,---,0.00,VWS V14.00,2013-03-18 09:03:00,
2013-03-18 04:08:00,27.1,17.3,29.70,SSE,155,6.3,8.1,66,0.00,,---,0.00,VWS V14.00,2013-03-18 09:08:00,
2013-03-18 04:13:00,27.0,17.5,29.70,ESE,120,3.1,7.6,67,0.00,,---,0.00,VWS V14.00,2013-03-18 09:13:00,
2013-03-18 04:18:00,27.0,17.8,29.70,ESE,105,3.1,6.3,68,0.00,,---,0.00,VWS V14.00,2013-03-18 09:18:00,
2013-03-18 04:23:00,26.8,18.0,29.70,SE,141,4.9,8.3,69,0.00,,---,0.00,VWS V14.00,2013-03-18 09:23:00,
2013-03-18 04:28:00,26.4,18.3,29.70,SE,131,4.0,5.4,71,0.00,,---,0.00,VWS V14.00,2013-03-18 09:28:00,
2013-03-18 04:33:00,26.4,19.0,29.70,ESE,118,3.6,8.3,73,0.00,,---,0.00,VWS V14.00,2013-03-18 09:33:00,
2013-03-18 04:38:00,26.2,19.7,29.70,East,93,5.8,6.3,76,0.00,,---,0.00,VWS V14.00,2013-03-18 09:38:00,
2013-03-18 04:43:00,26.2,20.0,29.67,SE,133,4.0,7.6,77,0.00,,---,0.00,VWS V14.00,2013-03-18 09:43:00,
2013-03-18 04:48:00,26.1,20.5,29.67,ESE,115,5.8,5.8,79,0.00,,---,0.00,VWS V14.00,2013-03-18 09:48:00,
2013-03-18 04:53:00,26.1,20.8,29.67,SE,129,5.8,8.1,80,0.00,,---,0.00,VWS V14.00,2013-03-18 09:53:00,
2013-03-18 04:58:00,26.1,21.0,29.67,SE,127,3.6,5.8,81,0.00,,---,0.00,VWS V14.00,2013-03-18 09:58:00,
2013-03-18 05:03:00,26.1,21.3,29.67,ESE,104,8.3,8.3,82,0.00,,---,0.00,VWS V14.00,2013-03-18 10:03:00,
2013-03-18 05:08:00,26.1,21.9,29.67,SE,135,8.7,11.4,84,0.00,,---,0.00,VWS V14.00,2013-03-18 10:08:00,
2013-03-18 05:13:00,26.1,22.2,29.67,ESE,108,3.6,7.6,85,0.00,,---,0.00,VWS V14.00,2013-03-18 10:13:00,
2013-03-18 05:18:00,25.9,22.3,29.67,ESE,111,5.8,8.7,86,0.00,,---,0.00,VWS V14.00,2013-03-18 10:18:00,
2013-03-18 05:23:00,25.9,22.3,29.67,SE,143,8.7,8.7,86,0.00,,---,0.00,VWS V14.00,2013-03-18 10:23:00,
2013-03-18 05:28:00,25.9,22.5,29.67,SSE,158,5.8,11.0,87,0.00,,---,0.00,VWS V14.00,2013-03-18 10:28:00,
2013-03-18 05:33:00,25.9,22.5,29.67,SSE,147,4.0,8.3,87,0.00,,---,0.00,VWS V14.00,2013-03-18 10:33:00,
2013-03-18 05:38:00,25.9,22.8,29.67,ESE,115,6.3,8.1,88,0.00,,---,0.00,VWS V14.00,2013-03-18 10:38:00,
2013-03-18 05:43:00,25.9,22.8,29.67,ESE,105,8.3,8.7,88,0.00,,---,0.00,VWS V14.00,2013-03-18 10:43:00,
2013-03-18 05:48:00,25.9,22.8,29.67,SSE,158,8.3,10.5,88,0.00,,---,0.00,VWS V14.00,2013-03-18 10:48:00,
2013-03-18 05:53:00,25.9,22.8,29.67,SE,124,4.9,8.7,88,0.00,,---,0.00,VWS V14.00,2013-03-18 10:53:00,
2013-03-18 05:58:00,26.1,23.3,29.67,SSE,162,7.6,7.6,89,0.00,,---,0.00,VWS V14.00,2013-03-18 10:58:00,
2013-03-18 06:04:00,26.1,23.3,29.67,SE,137,5.4,7.6,89,0.00,,---,0.00,VWS V14.00,2013-03-18 11:04:00,
2013-03-18 06:09:00,26.1,23.3,29.67,SSE,149,5.8,8.1,89,0.00,,---,0.00,VWS V14.00,2013-03-18 11:09:00,
2013-03-18 06:13:00,26.1,23.3,29.64,SE,135,3.6,8.1,89,0.00,,---,0.00,VWS V14.00,2013-03-18 11:13:00,
2013-03-18 06:19:00,26.1,23.3,29.64,SE,146,6.3,8.7,89,0.00,,---,0.00,VWS V14.00,2013-03-18 11:19:00,
2013-03-18 06:24:00,26.1,23.3,29.64,SE,141,7.6,8.1,89,0.00,,---,0.00,VWS V14.00,2013-03-18 11:24:00,
2013-03-18 06:29:00,26.1,23.3,29.64,SSE,168,4.0,10.1,89,0.00,,---,0.00,VWS V14.00,2013-03-18 11:29:00,
2013-03-18 06:34:00,26.1,23.5,29.64,ESE,121,8.3,12.3,90,0.00,,---,0.00,VWS V14.00,2013-03-18 11:34:00,
2013-03-18 06:39:00,26.1,23.5,29.64,SSE,165,3.1,6.3,90,0.00,,---,0.00,VWS V14.00,2013-03-18 11:39:00,
2013-03-18 06:44:00,26.1,23.5,29.64,ESE,108,10.1,10.1,90,0.00,,---,0.00,VWS V14.00,2013-03-18 11:44:00,
2013-03-18 06:49:00,26.1,23.5,29.64,SE,142,6.3,12.3,90,0.00,,---,0.00,VWS V14.00,2013-03-18 11:49:00,
2013-03-18 06:54:00,26.1,23.5,29.64,ESE,111,4.0,8.1,90,0.00,,---,0.00,VWS V14.00,2013-03-18 11:54:00,
2013-03-18 06:59:00,26.1,23.8,29.61,SE,133,6.3,9.2,91,0.00,,---,0.00,VWS V14.00,2013-03-18 11:59:00,
2013-03-18 07:04:00,26.2,24.0,29.61,SSE,164,6.3,6.3,91,0.00,,---,0.00,VWS V14.00,2013-03-18 12:04:00,
2013-03-18 07:09:00,26.2,24.0,29.61,SE,124,4.0,8.3,91,0.00,,---,0.00,VWS V14.00,2013-03-18 12:09:00,
2013-03-18 07:14:00,26.2,24.0,29.61,SSE,150,7.6,7.6,91,0.00,,---,0.00,VWS V14.00,2013-03-18 12:14:00,
2013-03-18 07:19:00,26.2,24.0,29.61,SE,138,4.0,7.6,91,0.00,,---,0.00,VWS V14.00,2013-03-18 12:19:00,
2013-03-18 07:24:00,26.2,24.2,29.61,SSE,155,5.8,6.3,92,0.00,,---,0.00,VWS V14.00,2013-03-18 12:24:00,
2013-03-18 07:29:00,26.4,24.4,29.61,ESE,111,6.3,8.1,92,0.00,,---,0.00,VWS V14.00,2013-03-18 12:29:00,
2013-03-18 07:34:00,26.4,24.4,29.61,SSE,154,7.6,8.7,92,0.00,,---,0.00,VWS V14.00,2013-03-18 12:34:00,
2013-03-18 07:39:00,26.4,24.4,29.61,South,187,5.8,8.3,92,0.00,,---,0.00,VWS V14.00,2013-03-18 12:39:00,
2013-03-18 07:44:00,26.6,24.9,29.61,SSE,150,7.6,7.6,93,0.00,,---,0.00,VWS V14.00,2013-03-18 12:44:00,
2013-03-18 07:49:00,26.6,24.9,29.61,SSE,157,3.1,8.7,93,0.00,,---,0.00,VWS V14.00,2013-03-18 12:49:00,
2013-03-18 07:54:00,26.8,25.0,29.61,SSE,162,6.3,8.3,93,0.00,,---,0.00,VWS V14.00,2013-03-18 12:54:00,
2013-03-18 07:59:00,26.8,25.0,29.61,SSE,148,9.6,9.6,93,0.00,,---,0.00,VWS V14.00,2013-03-18 12:59:00,
2013-03-18 08:04:00,27.0,25.2,29.61,South,172,7.6,7.6,93,0.00,,---,0.00,VWS V14.00,2013-03-18 13:04:00,
2013-03-18 08:09:00,27.0,25.2,29.61,SE,139,5.8,7.6,93,0.00,,---,0.00,VWS V14.00,2013-03-18 13:09:00,
2013-03-18 08:14:00,27.1,25.4,29.58,SSE,155,6.3,8.3,93,0.00,,---,0.00,VWS V14.00,2013-03-18 13:14:00,
2013-03-18 08:19:00,27.3,25.8,29.58,South,171,13.2,13.2,94,0.00,,---,0.00,VWS V14.00,2013-03-18 13:19:00,
2013-03-18 08:24:00,27.3,25.8,29.58,SSE,150,10.5,11.0,94,0.00,,---,0.00,VWS V14.00,2013-03-18 13:24:00,
2013-03-18 08:29:00,27.5,26.0,29.58,SE,144,6.3,14.5,94,0.00,,---,0.00,VWS V14.00,2013-03-18 13:29:00,
2013-03-18 08:34:00,27.7,26.2,29.58,SSE,153,7.6,8.3,94,0.00,,---,0.00,VWS V14.00,2013-03-18 13:34:00,
2013-03-18 08:39:00,27.9,26.4,29.58,SE,136,8.1,8.1,94,0.00,,---,0.00,VWS V14.00,2013-03-18 13:39:00,
2013-03-18 08:44:00,27.9,26.4,29.58,SE,127,8.1,11.0,94,0.00,,---,0.00,VWS V14.00,2013-03-18 13:44:00,
2013-03-18 08:50:00,28.0,26.5,29.58,SSE,151,7.6,7.6,94,0.00,,---,0.00,VWS V14.00,2013-03-18 13:50:00,
2013-03-18 08:55:00,28.2,26.7,29.58,SSE,150,7.6,7.6,94,0.00,,---,0.00,VWS V14.00,2013-03-18 13:55:00,
2013-03-18 09:00:00,28.4,26.9,29.58,SSE,161,11.0,11.0,94,0.00,,---,0.00,VWS V14.00,2013-03-18 14:00:00,
2013-03-18 09:05:00,28.4,26.9,29.58,South,173,5.8,7.6,94,0.00,,---,0.00,VWS V14.00,2013-03-18 14:05:00,
2013-03-18 09:10:00,28.6,26.8,29.58,South,177,5.8,8.3,93,0.00,,---,0.00,VWS V14.00,2013-03-18 14:10:00,
2013-03-18 09:15:00,28.6,26.8,29.58,SE,137,6.3,7.6,93,0.00,,---,0.00,VWS V14.00,2013-03-18 14:15:00,
2013-03-18 09:20:00,28.8,27.0,29.58,SE,128,5.4,8.3,93,0.00,,---,0.00,VWS V14.00,2013-03-18 14:20:00,
2013-03-18 09:25:00,28.9,27.2,29.58,SE,142,5.8,8.1,93,0.00,,---,0.00,VWS V14.00,2013-03-18 14:25:00,
2013-03-18 09:30:00,29.1,27.4,29.58,SSE,148,5.4,8.7,93,0.00,,---,0.00,VWS V14.00,2013-03-18 14:30:00,
2013-03-18 09:35:00,29.1,27.1,29.58,SSW,207,8.7,11.4,92,0.00,,---,0.00,VWS V14.00,2013-03-18 14:35:00,
2013-03-18 09:40:00,29.1,27.1,29.58,SSW,213,7.6,10.1,92,0.00,,---,0.00,VWS V14.00,2013-03-18 14:40:00,
2013-03-18 09:45:00,28.6,26.3,29.58,SW,216,10.1,15.4,91,0.00,,---,0.00,VWS V14.00,2013-03-18 14:45:00,
2013-03-18 09:50:00,27.7,25.1,29.58,WSW,252,8.3,12.8,90,0.00,,---,0.00,VWS V14.00,2013-03-18 14:50:00,
2013-03-18 09:55:00,27.3,24.5,29.58,West,259,7.6,10.5,89,0.00,,---,0.00,VWS V14.00,2013-03-18 14:55:00,
2013-03-18 10:00:00,27.1,24.3,29.58,SW,231,6.3,12.3,89,0.00,,---,0.00,VWS V14.00,2013-03-18 15:00:00,
2013-03-18 10:05:00,27.1,24.1,29.58,SW,232,8.3,8.3,88,0.00,,---,0.00,VWS V14.00,2013-03-18 15:05:00,
2013-03-18 10:10:00,27.3,24.2,29.58,WSW,251,6.3,11.9,88,0.00,,---,0.00,VWS V14.00,2013-03-18 15:10:00,
2013-03-18 10:15:00,27.3,24.0,29.58,WSW,244,8.7,8.7,87,0.00,,---,0.00,VWS V14.00,2013-03-18 15:15:00,
2013-03-18 10:20:00,26.8,23.2,29.58,SSW,211,8.3,9.6,86,0.00,,---,0.00,VWS V14.00,2013-03-18 15:20:00,
2013-03-18 10:25:00,26.2,22.4,29.58,West,276,4.0,11.0,85,0.00,,---,0.00,VWS V14.00,2013-03-18 15:25:00,
2013-03-18 10:30:00,25.9,21.4,29.61,SW,231,8.1,10.5,83,0.00,,---,0.00,VWS V14.00,2013-03-18 15:30:00,
2013-03-18 10:35:00,25.3,20.6,29.61,WNW,285,8.1,11.0,82,0.00,,---,0.00,VWS V14.00,2013-03-18 15:35:00,
2013-03-18 10:40:00,25.0,20.0,29.61,SW,227,8.7,10.1,81,0.00,,---,0.00,VWS V14.00,2013-03-18 15:40:00,
2013-03-18 10:45:00,24.8,19.8,29.61,WSW,256,6.3,12.3,81,0.00,,---,0.00,VWS V14.00,2013-03-18 15:45:00,
2013-03-18 10:50:00,24.6,19.3,29.61,SW,224,8.3,10.1,80,0.00,,---,0.00,VWS V14.00,2013-03-18 15:50:00,
2013-03-18 10:55:00,24.4,18.9,29.61,SW,226,8.7,13.2,79,0.00,,---,0.00,VWS V14.00,2013-03-18 15:55:00,
2013-03-18 11:01:00,25.0,18.8,29.61,WSW,240,3.6,8.3,77,0.00,,---,0.00,VWS V14.00,2013-03-18 16:01:00,
2013-03-18 11:06:00,25.2,18.0,29.61,SW,214,8.7,13.2,74,0.00,,---,0.00,VWS V14.00,2013-03-18 16:06:00,
2013-03-18 11:11:00,25.3,17.3,29.61,WSW,253,12.3,12.3,71,0.00,,---,0.00,VWS V14.00,2013-03-18 16:11:00,
2013-03-18 11:16:00,25.7,15.2,29.61,WSW,247,6.3,11.9,64,0.00,,---,0.00,VWS V14.00,2013-03-18 16:16:00,
2013-03-18 11:21:00,25.9,13.9,29.61,West,264,9.6,10.5,60,0.00,,---,0.00,VWS V14.00,2013-03-18 16:21:00,
2013-03-18 11:26:00,25.9,11.9,29.61,West,261,11.0,11.4,55,0.00,,---,0.00,VWS V14.00,2013-03-18 16:26:00,
2013-03-18 11:31:00,25.9,11.1,29.61,West,262,11.0,12.3,53,0.00,,---,0.00,VWS V14.00,2013-03-18 16:31:00,
2013-03-18 11:36:00,26.1,10.9,29.61,WSW,238,6.3,8.7,52,0.00,,---,0.00,VWS V14.00,2013-03-18 16:36:00,
2013-03-18 11:41:00,27.0,11.3,29.61,WSW,238,5.4,12.8,51,0.00,,---,0.00,VWS V14.00,2013-03-18 16:41:00,
2013-03-18 11:46:00,27.9,12.1,29.61,WSW,246,6.3,7.2,51,0.00,,---,0.00,VWS V14.00,2013-03-18 16:46:00,
2013-03-18 11:51:00,27.9,10.3,29.61,WNW,294,10.5,13.2,47,0.00,,---,0.00,VWS V14.00,2013-03-18 16:51:00,
2013-03-18 11:56:00,27.9,9.8,29.64,WNW,290,7.6,11.0,46,0.00,,---,0.00,VWS V14.00,2013-03-18 16:56:00,
2013-03-18 12:02:00,28.0,8.9,29.64,WSW,243,10.1,13.2,44,0.00,,---,0.00,VWS V14.00,2013-03-18 17:02:00,
2013-03-18 12:07:00,28.6,8.9,29.64,SW,228,11.0,11.0,43,0.00,,---,0.00,VWS V14.00,2013-03-18 17:07:00,
2013-03-18 12:12:00,28.4,8.8,29.61,WNW,293,8.3,13.2,43,0.00,,---,0.00,VWS V14.00,2013-03-18 17:12:00,
2013-03-18 12:17:00,29.8,10.1,29.61,WSW,247,14.1,14.1,43,0.00,,---,0.00,VWS V14.00,2013-03-18 17:17:00,
2013-03-18 12:22:00,29.1,8.9,29.61,WSW,258,8.3,12.3,42,0.00,,---,0.00,VWS V14.00,2013-03-18 17:22:00,
2013-03-18 12:27:00,30.2,9.4,29.64,WNW,284,12.3,12.3,41,0.00,,---,0.00,VWS V14.00,2013-03-18 17:27:00,
2013-03-18 12:32:00,30.6,9.7,29.64,West,264,7.6,8.7,41,0.00,,---,0.00,VWS V14.00,2013-03-18 17:32:00,
2013-03-18 12:37:00,30.6,9.1,29.64,WSW,246,13.2,17.0,40,0.00,,---,0.00,VWS V14.00,2013-03-18 17:37:00,
2013-03-18 12:42:00,29.3,8.5,29.64,WSW,247,8.3,9.6,41,0.00,,---,0.00,VWS V14.00,2013-03-18 17:42:00,
2013-03-18 12:47:00,29.3,8.5,29.64,WNW,293,8.3,11.0,41,0.00,,---,0.00,VWS V14.00,2013-03-18 17:47:00,
2013-03-18 12:52:00,29.3,8.5,29.64,West,271,8.1,14.5,41,0.00,,---,0.00,VWS V14.00,2013-03-18 17:52:00,
2013-03-18 12:57:00,28.6,7.9,29.64,WSW,256,8.7,16.3,41,0.00,,---,0.00,VWS V14.00,2013-03-18 17:57:00,
2013-03-18 13:02:00,27.5,6.9,29.64,WSW,246,5.4,8.3,41,0.00,,---,0.00,VWS V14.00,2013-03-18 18:02:00,
2013-03-18 13:07:00,27.5,7.4,29.64,WSW,245,11.9,11.9,42,0.00,,---,0.00,VWS V14.00,2013-03-18 18:07:00,
2013-03-18 13:12:00,27.3,7.3,29.64,West,260,3.1,8.7,42,0.00,,---,0.00,VWS V14.00,2013-03-18 18:12:00,
2013-03-18 13:17:00,27.3,7.3,29.64,SW,229,8.7,10.5,42,0.00,,---,0.00,VWS V14.00,2013-03-18 18:17:00,
2013-03-18 13:22:00,26.8,6.2,29.64,WSW,253,8.3,13.6,41,0.00,,---,0.00,VWS V14.00,2013-03-18 18:22:00,
2013-03-18 13:27:00,25.9,6.0,29.64,WSW,251,8.3,11.0,42,0.00,,---,0.00,VWS V14.00,2013-03-18 18:27:00,
2013-03-18 13:32:00,25.9,6.0,29.64,WSW,252,8.1,14.1,42,0.00,,---,0.00,VWS V14.00,2013-03-18 18:32:00,
2013-03-18 13:37:00,25.3,5.5,29.64,West,265,15.0,15.0,42,0.00,,---,0.00,VWS V14.00,2013-03-18 18:37:00,
2013-03-18 13:42:00,25.5,5.6,29.64,NW,312,10.5,10.5,42,0.00,,---,0.00,VWS V14.00,2013-03-18 18:42:00,
2013-03-18 13:47:00,25.0,5.1,29.64,SW,220,8.7,11.0,42,0.00,,---,0.00,VWS V14.00,2013-03-18 18:47:00,
2013-03-18 13:52:00,25.7,5.8,29.64,WSW,253,8.7,11.0,42,0.00,,---,0.00,VWS V14.00,2013-03-18 18:52:00,
2013-03-18 13:57:00,26.1,6.1,29.64,WSW,254,5.8,8.1,42,0.00,,---,0.00,VWS V14.00,2013-03-18 18:57:00,
2013-03-18 14:02:00,26.4,6.4,29.64,NW,306,11.0,13.2,42,0.00,,---,0.00,VWS V14.00,2013-03-18 19:02:00,
2013-03-18 14:07:00,26.1,5.6,29.64,West,280,11.0,11.0,41,0.00,,---,0.00,VWS V14.00,2013-03-18 19:07:00,
2013-03-18 14:12:00,25.5,5.1,29.64,SW,231,5.8,11.4,41,0.00,,---,0.00,VWS V14.00,2013-03-18 19:12:00,
2013-03-18 14:17:00,26.1,5.6,29.64,SW,235,13.2,14.5,41,0.00,,---,0.00,VWS V14.00,2013-03-18 19:17:00,
2013-03-18 14:22:00,26.1,5.6,29.64,WSW,251,11.4,11.4,41,0.00,,---,0.00,VWS V14.00,2013-03-18 19:22:00,
2013-03-18 14:27:00,25.7,5.3,29.64,West,264,5.8,13.2,41,0.00,,---,0.00,VWS V14.00,2013-03-18 19:27:00,
2013-03-18 14:32:00,25.3,4.9,29.64,NW,306,7.6,11.0,41,0.00,,---,0.00,VWS V14.00,2013-03-18 19:32:00,
2013-03-18 14:37:00,25.5,5.1,29.64,West,262,9.6,11.9,41,0.00,,---,0.00,VWS V14.00,2013-03-18 19:37:00,
2013-03-18 14:42:00,25.0,4.6,29.64,WNW,301,15.0,15.0,41,0.00,,---,0.00,VWS V14.00,2013-03-18 19:42:00,
2013-03-18 14:48:00,25.0,4.6,29.64,WSW,242,8.1,12.8,41,0.00,,---,0.00,VWS V14.00,2013-03-18 19:48:00,
2013-03-18 14:53:00,25.7,5.3,29.64,WNW,284,10.5,17.0,41,0.00,,---,0.00,VWS V14.00,2013-03-18 19:53:00,
2013-03-18 14:58:00,26.1,5.6,29.64,West,265,10.5,13.2,41,0.00,,---,0.00,VWS V14.00,2013-03-18 19:58:00,
2013-03-18 15:03:00,26.4,5.9,29.64,West,266,17.4,23.7,41,0.00,,---,0.00,VWS V14.00,2013-03-18 20:03:00,
2013-03-18 15:08:00,26.1,5.6,29.64,West,267,8.1,14.5,41,0.00,,---,0.00,VWS V14.00,2013-03-18 20:08:00,
2013-03-18 15:13:00,26.2,5.8,29.64,West,261,8.3,12.3,41,0.00,,---,0.00,VWS V14.00,2013-03-18 20:13:00,
2013-03-18 15:18:00,26.1,5.6,29.64,WSW,245,8.7,14.5,41,0.00,,---,0.00,VWS V14.00,2013-03-18 20:18:00,
2013-03-18 15:23:00,26.2,5.2,29.64,NW,307,10.5,10.5,40,0.00,,---,0.00,VWS V14.00,2013-03-18 20:23:00,
2013-03-18 15:28:00,25.9,5.4,29.64,WSW,247,11.0,11.0,41,0.00,,---,0.00,VWS V14.00,2013-03-18 20:28:00,
2013-03-18 15:33:00,25.3,4.9,29.64,South,181,7.6,13.2,41,0.00,,---,0.00,VWS V14.00,2013-03-18 20:33:00,
2013-03-18 15:38:00,25.9,5.4,29.64,NW,307,15.4,15.4,41,0.00,,---,0.00,VWS V14.00,2013-03-18 20:38:00,
2013-03-18 15:43:00,25.3,4.4,29.64,NW,317,12.3,12.3,40,0.00,,---,0.00,VWS V14.00,2013-03-18 20:43:00,
2013-03-18 15:48:00,24.8,5.0,29.64,WSW,254,5.8,8.3,42,0.00,,---,0.00,VWS V14.00,2013-03-18 20:48:00,
2013-03-18 15:53:00,25.0,4.6,29.64,WNW,284,9.6,10.5,41,0.00,,---,0.00,VWS V14.00,2013-03-18 20:53:00,
2013-03-18 15:58:00,24.3,4.5,29.64,WSW,250,13.2,13.2,42,0.00,,---,0.00,VWS V14.00,2013-03-18 20:58:00,
2013-03-18 16:03:00,23.4,3.7,29.64,WNW,298,8.7,11.4,42,0.00,,---,0.00,VWS V14.00,2013-03-18 21:03:00,
2013-03-18 16:08:00,22.8,3.2,29.64,WSW,258,4.0,11.0,42,0.00,,---,0.00,VWS V14.00,2013-03-18 21:08:00,
2013-03-18 16:13:00,23.0,3.8,29.64,SW,231,8.7,15.4,43,0.00,,---,0.00,VWS V14.00,2013-03-18 21:13:00,
2013-03-18 16:18:00,22.8,3.7,29.64,WNW,288,7.6,12.8,43,0.00,,---,0.00,VWS V14.00,2013-03-18 21:18:00,
2013-03-18 16:23:00,22.3,3.2,29.64,WSW,256,17.0,17.0,43,0.00,,---,0.00,VWS V14.00,2013-03-18 21:23:00,
2013-03-18 16:28:00,22.6,3.5,29.64,NW,307,12.8,15.4,43,0.00,,---,0.00,VWS V14.00,2013-03-18 21:28:00,
2013-03-18 16:33:00,23.5,3.8,29.64,West,278,10.5,13.2,42,0.00,,---,0.00,VWS V14.00,2013-03-18 21:33:00,
2013-03-18 16:38:00,23.9,4.2,29.64,WNW,293,12.8,17.9,42,0.00,,---,0.00,VWS V14.00,2013-03-18 21:38:00,
2013-03-18 16:43:00,25.0,5.1,29.64,WSW,257,10.1,11.0,42,0.00,,---,0.00,VWS V14.00,2013-03-18 21:43:00,
2013-03-18 16:49:00,23.9,4.2,29.64,WSW,257,12.8,14.5,42,0.00,,---,0.00,VWS V14.00,2013-03-18 21:49:00,
2013-03-18 16:54:00,23.0,3.8,29.64,West,276,7.6,10.1,43,0.00,,---,0.00,VWS V14.00,2013-03-18 21:54:00,
2013-03-18 16:59:00,22.3,3.2,29.64,WSW,245,11.0,13.2,43,0.00,,---,0.00,VWS V14.00,2013-03-18 21:59:00,
2013-03-18 17:04:00,22.1,3.0,29.64,WNW,295,6.3,11.0,43,0.00,,---,0.00,VWS V14.00,2013-03-18 22:04:00,
2013-03-18 17:09:00,22.8,3.7,29.64,West,267,8.7,11.0,43,0.00,,---,0.00,VWS V14.00,2013-03-18 22:09:00,
2013-03-18 17:14:00,23.5,4.3,29.64,NNE,24,6.3,11.0,43,0.00,,---,0.00,VWS V14.00,2013-03-18 22:14:00,
2013-03-18 17:19:00,23.2,3.5,29.64,West,267,11.0,17.0,42,0.00,,---,0.00,VWS V14.00,2013-03-18 22:19:00,
2013-03-18 17:24:00,22.6,3.0,29.64,WNW,284,13.2,15.0,42,0.00,,---,0.00,VWS V14.00,2013-03-18 22:24:00,
2013-03-18 17:29:00,21.9,2.9,29.67,West,275,15.0,15.0,43,0.00,,---,0.00,VWS V14.00,2013-03-18 22:29:00,
2013-03-18 17:34:00,21.9,2.9,29.67,WNW,285,8.1,15.0,43,0.00,,---,0.00,VWS V14.00,2013-03-18 22:34:00,
2013-03-18 17:39:00,22.1,3.0,29.67,WNW,291,8.7,8.7,43,0.00,,---,0.00,VWS V14.00,2013-03-18 22:39:00,
2013-03-18 17:44:00,21.4,2.9,29.67,WSW,237,5.4,11.0,44,0.00,,---,0.00,VWS V14.00,2013-03-18 22:44:00,
2013-03-18 17:49:00,20.1,2.2,29.67,NW,314,8.3,8.7,45,0.00,,---,0.00,VWS V14.00,2013-03-18 22:49:00,
2013-03-18 17:54:00,19.8,1.9,29.67,WNW,291,5.4,7.2,45,0.00,,---,0.00,VWS V14.00,2013-03-18 22:54:00,
2013-03-18 17:59:00,20.3,2.8,29.67,WSW,250,6.3,10.5,46,0.00,,---,0.00,VWS V14.00,2013-03-18 22:59:00,
2013-03-18 18:04:00,20.8,3.3,29.67,West,271,12.8,13.2,46,0.00,,---,0.00,VWS V14.00,2013-03-18 23:04:00,
2013-03-18 18:09:00,20.8,2.9,29.67,NW,307,11.9,11.9,45,0.00,,---,0.00,VWS V14.00,2013-03-18 23:09:00,
2013-03-18 18:14:00,21.2,3.7,29.67,WNW,288,8.1,12.3,46,0.00,,---,0.00,VWS V14.00,2013-03-18 23:14:00,
2013-03-18 18:19:00,21.2,3.2,29.67,WSW,250,5.8,12.8,45,0.00,,---,0.00,VWS V14.00,2013-03-18 23:19:00,
2013-03-18 18:25:00,20.7,2.7,29.67,SSW,209,6.3,13.2,45,0.00,,---,0.00,VWS V14.00,2013-03-18 23:25:00,
2013-03-18 18:30:00,19.9,2.5,29.67,South,179,5.4,11.4,46,0.00,,---,0.00,VWS V14.00,2013-03-18 23:30:00,
2013-03-18 18:35:00,19.6,2.2,29.67,West,265,8.1,13.2,46,0.00,,---,0.00,VWS V14.00,2013-03-18 23:35:00,
2013-03-18 18:40:00,18.9,2.0,29.67,WNW,291,11.0,11.0,47,0.00,,---,0.00,VWS V14.00,2013-03-18 23:40:00,
2013-03-18 18:45:00,18.3,1.9,29.67,WNW,290,8.3,14.5,48,0.00,,---,0.00,VWS V14.00,2013-03-18 23:45:00,
2013-03-18 18:50:00,18.0,2.5,29.67,West,260,8.3,11.0,50,0.00,,---,0.00,VWS V14.00,2013-03-18 23:50:00,
2013-03-18 18:55:00,17.6,2.6,29.67,WSW,244,15.0,15.0,51,0.00,,---,0.00,VWS V14.00,2013-03-18 23:55:00,
2013-03-18 19:00:00,17.4,2.8,29.67,West,275,6.3,10.1,52,0.00,,---,0.00,VWS V14.00,2013-03-19 00:00:00,
2013-03-18 19:05:00,17.1,2.9,29.67,WNW,282,8.1,8.7,53,0.00,,---,0.00,VWS V14.00,2013-03-19 00:05:00,
2013-03-18 19:10:00,16.9,3.1,29.67,WNW,287,8.7,13.2,54,0.00,,---,0.00,VWS V14.00,2013-03-19 00:10:00,
2013-03-18 19:15:00,16.7,3.0,29.70,West,262,10.1,13.2,54,0.00,,---,0.00,VWS V14.00,2013-03-19 00:15:00,
2013-03-18 19:20:00,16.5,2.8,29.70,WNW,286,10.5,13.2,54,0.00,,---,0.00,VWS V14.00,2013-03-19 00:20:00,
2013-03-18 19:25:00,16.3,3.0,29.70,WNW,282,8.7,15.9,55,0.00,,---,0.00,VWS V14.00,2013-03-19 00:25:00,
2013-03-18 19:30:00,16.2,2.8,29.70,WSW,246,10.5,13.2,55,0.00,,---,0.00,VWS V14.00,2013-03-19 00:30:00,
2013-03-18 19:35:00,16.2,3.2,29.70,West,267,6.3,8.7,56,0.00,,---,0.00,VWS V14.00,2013-03-19 00:35:00,
2013-03-18 19:40:00,16.0,3.1,29.70,West,263,8.3,10.5,56,0.00,,---,0.00,VWS V14.00,2013-03-19 00:40:00,
2013-03-18 19:45:00,16.0,3.1,29.70,WSW,251,8.1,8.7,56,0.00,,---,0.00,VWS V14.00,2013-03-19 00:45:00,
2013-03-18 19:50:00,15.8,3.3,29.70,WNW,285,11.0,13.2,57,0.00,,---,0.00,VWS V14.00,2013-03-19 00:50:00,
2013-03-18 19:55:00,15.8,3.3,29.70,NW,307,7.6,12.8,57,0.00,,---,0.00,VWS V14.00,2013-03-19 00:55:00,
2013-03-18 20:00:00,15.6,3.1,29.70,WSW,237,14.5,15.9,57,0.00,,---,0.00,VWS V14.00,2013-03-19 01:00:00,
2013-03-18 20:05:00,15.4,3.3,29.70,SW,234,13.2,13.2,58,0.00,,---,0.00,VWS V14.00,2013-03-19 01:05:00,
2013-03-18 20:10:00,15.4,3.3,29.70,NW,321,7.6,11.0,58,0.00,,---,0.00,VWS V14.00,2013-03-19 01:10:00,
2013-03-18 20:15:00,15.3,3.2,29.70,NNW,331,7.6,12.8,58,0.00,,---,0.00,VWS V14.00,2013-03-19 01:15:00,
2013-03-18 20:20:00,15.3,3.2,29.70,West,279,5.4,8.7,58,0.00,,---,0.00,VWS V14.00,2013-03-19 01:20:00,
2013-03-18 20:25:00,15.3,3.2,29.70,WNW,302,15.0,17.9,58,0.00,,---,0.00,VWS V14.00,2013-03-19 01:25:00,
2013-03-18 20:30:00,15.3,3.2,29.70,WNW,299,8.3,8.3,58,0.00,,---,0.00,VWS V14.00,2013-03-19 01:30:00,
2013-03-18 20:35:00,15.3,2.8,29.70,West,276,9.2,11.4,57,0.00,,---,0.00,VWS V14.00,2013-03-19 01:35:00,
2013-03-18 20:40:00,15.3,2.8,29.70,WSW,257,10.1,12.8,57,0.00,,---,0.00,VWS V14.00,2013-03-19 01:40:00,
2013-03-18 20:45:00,15.3,2.4,29.73,West,269,10.1,10.1,56,0.00,,---,0.00,VWS V14.00,2013-03-19 01:45:00,
2013-03-18 20:50:00,15.3,2.0,29.73,WNW,284,10.1,11.0,55,0.00,,---,0.00,VWS V14.00,2013-03-19 01:50:00,
2013-03-18 20:55:00,15.3,2.0,29.73,WNW,286,13.6,13.6,55,0.00,,---,0.00,VWS V14.00,2013-03-19 01:55:00,
2013-03-18 21:00:00,15.1,1.8,29.73,WSW,241,13.2,13.2,55,0.00,,---,0.00,VWS V14.00,2013-03-19 02:00:00,
2013-03-18 21:05:00,15.1,1.4,29.73,WNW,292,8.3,11.0,54,0.00,,---,0.00,VWS V14.00,2013-03-19 02:05:00,
2013-03-18 21:10:00,14.9,1.7,29.73,SW,232,14.5,14.5,55,0.00,,---,0.00,VWS V14.00,2013-03-19 02:10:00,
2013-03-18 21:15:00,14.9,1.7,29.73,WNW,298,11.0,12.3,55,0.00,,---,0.00,VWS V14.00,2013-03-19 02:15:00,
2013-03-18 21:20:00,14.7,1.5,29.73,WSW,253,17.4,17.4,55,0.00,,---,0.00,VWS V14.00,2013-03-19 02:20:00,
2013-03-18 21:25:00,14.7,1.5,29.73,West,267,5.8,12.8,55,0.00,,---,0.00,VWS V14.00,2013-03-19 02:25:00,
2013-03-18 21:30:00,14.5,1.3,29.73,WSW,249,19.2,19.2,55,0.00,,---,0.00,VWS V14.00,2013-03-19 02:30:00,
2013-03-18 21:35:00,14.5,0.9,29.73,WNW,290,5.4,12.8,54,0.00,,---,0.00,VWS V14.00,2013-03-19 02:35:00,
2013-03-18 21:41:00,14.5,1.3,29.73,WSW,249,8.7,10.1,55,0.00,,---,0.00,VWS V14.00,2013-03-19 02:41:00,
2013-03-18 21:46:00,14.4,1.2,29.76,West,263,8.1,12.8,55,0.00,,---,0.00,VWS V14.00,2013-03-19 02:46:00,
2013-03-18 21:51:00,14.4,1.2,29.76,NW,315,6.3,10.5,55,0.00,,---,0.00,VWS V14.00,2013-03-19 02:51:00,
2013-03-18 21:56:00,14.2,1.0,29.76,NW,305,8.3,12.8,55,0.00,,---,0.00,VWS V14.00,2013-03-19 02:56:00,
2013-03-18 22:01:00,14.0,0.8,29.76,NW,311,12.3,15.0,55,0.00,,---,0.00,VWS V14.00,2013-03-19 03:01:00,
2013-03-18 22:06:00,13.8,0.6,29.76,WNW,284,7.6,10.1,55,0.00,,---,0.00,VWS V14.00,2013-03-19 03:06:00,
2013-03-18 22:11:00,13.6,0.5,29.76,WNW,285,11.0,11.0,55,0.00,,---,0.00,VWS V14.00,2013-03-19 03:11:00,
2013-03-18 22:16:00,13.5,0.3,29.76,West,266,11.0,13.2,55,0.00,,---,0.00,VWS V14.00,2013-03-19 03:16:00,
2013-03-18 22:21:00,13.3,0.2,29.76,SW,235,5.4,8.7,55,0.00,,---,0.00,VWS V14.00,2013-03-19 03:21:00,
2013-03-18 22:26:00,13.3,0.2,29.76,NW,305,13.2,13.6,55,0.00,,---,0.00,VWS V14.00,2013-03-19 03:26:00,
2013-03-18 22:31:00,13.1,0.0,29.76,SW,227,8.7,13.6,55,0.00,,---,0.00,VWS V14.00,2013-03-19 03:31:00,
2013-03-18 22:36:00,13.1,0.0,29.76,WNW,284,11.0,12.8,55,0.00,,---,0.00,VWS V14.00,2013-03-19 03:36:00,
2013-03-18 22:42:00,13.1,0.0,29.76,NW,317,12.3,12.3,55,0.00,,---,0.00,VWS V14.00,2013-03-19 03:42:00,
2013-03-18 22:47:00,12.9,-0.2,29.76,NNW,332,8.1,8.3,55,0.00,,---,0.00,VWS V14.00,2013-03-19 03:47:00,
2013-03-18 22:52:00,12.9,-0.2,29.76,WNW,293,11.9,13.2,55,0.00,,---,0.00,VWS V14.00,2013-03-19 03:52:00,
2013-03-18 22:57:00,12.9,-0.2,29.79,WNW,297,8.7,8.7,55,0.00,,---,0.00,VWS V14.00,2013-03-19 03:57:00,
2013-03-18 23:00:00,12.9,-0.2,29.79,WNW,288,13.2,13.2,55,0.00,,---,0.00,VWS V14.00,2013-03-19 04:00:00,
2013-03-18 23:05:00,12.7,-0.4,29.79,NW,307,8.3,9.6,55,0.00,,---,0.00,VWS V14.00,2013-03-19 04:05:00,
2013-03-18 23:10:00,12.6,-0.5,29.79,NW,323,11.0,16.8,55,0.00,,---,0.00,VWS V14.00,2013-03-19 04:10:00,
2013-03-18 23:15:00,12.6,-0.5,29.79,NNW,330,8.1,10.1,55,0.00,,---,0.00,VWS V14.00,2013-03-19 04:15:00,
2013-03-18 23:20:00,12.2,-0.9,29.79,NW,309,5.4,8.1,55,0.00,,---,0.00,VWS V14.00,2013-03-19 04:20:00,
2013-03-18 23:25:00,12.0,-1.0,29.79,WNW,303,10.5,17.4,55,0.00,,---,0.00,VWS V14.00,2013-03-19 04:25:00,
2013-03-18 23:30:00,11.8,-1.2,29.79,WNW,282,7.6,10.5,55,0.00,,---,0.00,VWS V14.00,2013-03-19 04:30:00,
2013-03-18 23:35:00,11.7,-1.4,29.79,WNW,298,8.7,15.9,55,0.00,,---,0.00,VWS V14.00,2013-03-19 04:35:00,
2013-03-18 23:40:00,11.5,-1.5,29.79,WNW,291,8.3,13.2,55,0.00,,---,0.00,VWS V14.00,2013-03-19 04:40:00,
2013-03-18 23:45:00,11.3,-1.7,29.79,NW,312,5.8,8.7,55,0.00,,---,0.00,VWS V14.00,2013-03-19 04:45:00,
2013-03-18 23:50:00,11.3,-1.7,29.79,NW,310,13.6,13.6,55,0.00,,---,0.00,VWS V14.00,2013-03-19 04:50:00,
2013-03-18 23:55:00,11.3,-1.7,29.79,WNW,284,8.3,11.0,55,0.00,,---,0.00,VWS V14.00,2013-03-19 04:55:00,